User: anonymous   Login
Location: Columbia
(38.9520°N, 92.3340°W)
Time: 06:04:23
(UTC-06:00)
Language:

CZ-2C R/B - Orbit

View from above orbital plane
View from above orbital plane
View from above satellite
View from above satellite

Ground track
Ground track

The orbit data is extracted from the following two-line orbital elements,

1 28480U 04046B   14326.88848429  .00000224  00000-0  10006-3 0  4929
2 28480 098.1107 110.8441 0143694 112.5084 010.1830 14.25390840520698
Epoch (UTC): 22 November 2014 21:19:25
Eccentricity: 0.0143694
inclination: 98.1107°
perigee height: 704 km
apogee height: 910 km
right ascension of ascending node: 110.8441°
argument of perigee: 112.5084°
revolutions per day: 14.25390840
mean anomaly at epoch: 10.1830°
orbit number at epoch: 52069

The dashed part of the orbit path shows where the satellite is in the earth's shadow,  

DLR